KC1IUC-13 Weather Reports


time (UTC)temp
C
wind
direction
speed
KPH
gust
KPH
rain 1hr
cm
rain 24hr
cm
rain mn
cm
humidity
%
barometer
mb
20260504150904 19 170 4.8 17.7 0.00 0.00 0.00 47 1007.6
20260504140904 18 173 3.2 11.3 0.00 0.00 0.00 55 1008.0
20260504081804 1 0 0.0 0.0 0.00 0.00 0.00 67 1008.7
20260504080904 1 0 0.0 0.0 0.00 0.00 0.00 67 1008.7
20260504050004 3 0 0.0 0.0 0.00 0.00 0.00 57 1008.3
20260504045404 3 0 0.0 0.0 0.00 0.00 0.00 57 1008.0
20260504044504 3 0 0.0 0.0 0.00 0.00 0.00 57 1008.0
20260504043604 3 0 0.0 0.0 0.00 0.00 0.00 56 1008.3
20260504042704 3 0 0.0 0.0 0.00 0.00 0.00 55 1008.0
20260504041804 3 0 0.0 0.0 0.00 0.00 0.00 55 1008.3
20260504040904 3 0 0.0 0.0 0.00 0.00 0.00 54 1008.0
20260504040004 4 0 0.0 0.0 0.00 0.00 0.00 54 1008.0
20260504035404 4 0 0.0 0.0 0.00 0.00 0.00 53 1008.0
20260504034504 4 0 0.0 0.0 0.00 0.00 0.00 52 1008.0
20260504033604 4 0 0.0 0.0 0.00 0.00 0.00 52 1008.0
20260504032704 5 0 0.0 0.0 0.00 0.00 0.00 51 1008.0
20260504031804 5 0 0.0 0.0 0.00 0.00 0.00 50 1008.0
20260504030904 5 0 0.0 0.0 0.00 0.00 0.00 49 1008.0
20260504030004 6 0 0.0 0.0 0.00 0.00 0.00 49 1008.0
20260504025404 6 0 0.0 0.0 0.00 0.00 0.00 48 1007.6
20260504024504 6 0 0.0 0.0 0.00 0.00 0.00 48 1007.6
20260504023604 6 0 0.0 0.0 0.00 0.00 0.00 47 1007.6
20260504022704 6 0 0.0 0.0 0.00 0.00 0.00 46 1007.6
20260504021804 7 0 0.0 0.0 0.00 0.00 0.00 45 1007.6
20260504020904 7 0 0.0 0.0 0.00 0.00 0.00 44 1007.6
20260504020004 8 0 0.0 0.0 0.00 0.00 0.00 44 1007.6
20260504015404 8 0 0.0 0.0 0.00 0.00 0.00 44 1007.6
20260504014504 8 0 0.0 0.0 0.00 0.00 0.00 44 1007.6
20260504013604 8 0 0.0 0.0 0.00 0.00 0.00 43 1007.6
20260504012704 9 0 0.0 0.0 0.00 0.00 0.00 43 1007.6
20260504011804 9 0 0.0 0.0 0.00 0.00 0.00 43 1007.3
20260504010904 9 0 0.0 0.0 0.00 0.00 0.00 43 1007.3
20260504010004 10 0 0.0 0.0 0.00 0.00 0.00 43 1007.0
20260504005404 10 0 0.0 0.0 0.00 0.00 0.00 43 1007.0
20260504004504 10 0 0.0 0.0 0.00 0.00 0.00 43 1007.0
20260504003604 10 0 0.0 0.0 0.00 0.00 0.00 42 1007.0
20260504002704 10 0 0.0 0.0 0.00 0.00 0.00 42 1006.6
20260504001804 10 0 0.0 0.0 0.00 0.00 0.00 42 1006.6
20260504000904 11 192 0.0 1.6 0.00 0.00 0.00 42 1006.3
20260504000004 11 192 0.0 1.6 0.00 0.00 0.00 42 1006.6
20260503235404 11 192 0.0 1.6 0.00 0.00 0.00 42 1006.3
20260503234504 11 192 0.0 1.6 0.00 0.00 0.00 42 1005.9
20260503233604 11 0 0.0 0.0 0.00 0.00 0.00 42 1005.9
20260503232704 11 192 0.0 1.6 0.00 0.00 0.00 42 1005.9
20260503231804 11 192 0.0 4.8 0.00 0.00 0.00 42 1005.9
20260503230904 11 192 0.0 1.6 0.00 0.00 0.00 42 1005.9
20260503230004 11 192 0.0 4.8 0.00 0.00 0.00 42 1005.9
20260503225404 12 193 1.6 6.4 0.00 0.00 0.00 42 1005.6
20260503224504 12 193 1.6 11.3 0.00 0.00 0.00 42 1005.6
20260503223604 12 216 1.6 11.3 0.00 0.00 0.00 42 1005.9
20260503222704 12 175 1.6 6.4 0.00 0.00 0.00 42 1005.6
20260503221804 12 243 1.6 6.4 0.00 0.00 0.00 43 1005.9
20260503220904 12 175 1.6 4.8 0.00 0.00 0.00 43 1005.6
20260503220004 12 195 0.0 4.8 0.00 0.00 0.00 43 1005.6
20260503215404 12 199 1.6 9.7 0.00 0.00 0.00 43 1005.6
20260503214504 12 117 1.6 6.4 0.00 0.00 0.00 43 1005.6
20260503213604 12 161 1.6 6.4 0.00 0.00 0.00 43 1005.2
20260503212704 12 138 3.2 11.3 0.00 0.00 0.00 43 1005.6
20260503211804 12 99 3.2 11.3 0.00 0.00 0.00 43 1005.6
20260503210904 12 106 1.6 9.7 0.00 0.00 0.00 43 1005.6
20260503210004 12 27 3.2 16.1 0.00 0.00 0.00 43 1005.6
20260503205404 12 24 3.2 16.1 0.00 0.00 0.00 43 1005.2
20260503204504 13 97 3.2 9.7 0.00 0.00 0.00 43 1005.6
20260503203604 12 33 3.2 11.3 0.00 0.00 0.00 43 1005.6
20260503202704 13 313 1.6 11.3 0.00 0.00 0.00 43 1005.6
20260503201804 13 12 3.2 11.3 0.00 0.00 0.00 43 1005.6
20260503200904 13 51 4.8 11.3 0.00 0.00 0.00 44 1005.6
20260503200004 13 36 3.2 11.3 0.00 0.00 0.00 44 1005.6
20260503195404 13 6 4.8 16.1 0.00 0.00 0.00 44 1005.9
20260503194504 14 123 4.8 12.9 0.00 0.00 0.00 45 1005.6
20260503193604 14 79 4.8 22.5 0.00 0.00 0.00 46 1005.9
20260503192704 14 24 3.2 12.9 0.00 0.00 0.00 46 1005.9
20260503191804 14 37 4.8 12.9 0.00 0.00 0.00 46 1005.9
20260503190904 14 41 3.2 11.3 0.00 0.00 0.00 47 1005.9
20260503190004 14 71 3.2 16.1 0.00 0.00 0.00 48 1005.9
20260503185404 14 150 4.8 11.3 0.00 0.00 0.00 49 1005.9
20260503184504 12 6 3.2 11.3 0.00 0.00 0.00 48 1005.9
20260503183604 12 60 3.2 14.5 0.00 0.00 0.00 48 1005.9
20260503182704 12 191 3.2 9.7 0.00 0.00 0.00 49 1005.9
20260503181804 12 76 3.2 14.5 0.00 0.00 0.00 48 1005.9
20260503180904 12 138 1.6 11.3 0.00 0.00 0.00 49 1005.9
20260503180004 12 141 3.2 12.9 0.00 0.00 0.00 49 1005.9
20260503175404 12 143 3.2 14.5 0.00 0.00 0.00 50 1005.9
20260503174504 12 358 3.2 9.7 0.00 0.00 0.00 50 1005.6
20260503173603 12 68 3.2 6.4 0.00 0.00 0.00 51 1005.9
20260503172704 11 353 3.2 9.7 0.00 0.00 0.00 51 1005.9
20260503171804 11 13 3.2 9.7 0.00 0.00 0.00 51 1005.9
20260503170904 11 15 3.2 9.7 0.00 0.00 0.00 52 1005.9